SCP
0 0 0 1 2 1 1 1 1 1 1 1 1 1 0 0 0 0 0 0 0 0
0 0 0 2 1 1 1 0 1 1 1 1 1 0 0 0 0 0 0 0 0 0
0 1 1 1 1 1 0 1 1 1 1 1 1 0 0 0 0 0 0 0 0 0
1 2 1 1 1 0 0 0 1 1 1 0 0 0 0 0 0 0 0 0 0 0
2 2 1 1 1 1 1 1 1 0 0 0 0 0 0 0 0 0 0 0 0 0
2 1 1 1 1 1 1 1 0 0 0 0 0 0 0 0 0 0 0 0 0 0
1 1 1 1 1 0 0 0 0 0 0 0 0 0 0 0 0 0 0 0 0 0
1 0 0 0 0 0 0 0 0 0 0 0 0 0 0 0 0 0 0 0 0 0
0 0 0 0 0 0 0 0 0 0 0 0 0 0 0 0 0 0 0 0 0 0
0 0 0 0 0 0 0 0 0 0 0 0 0 0 0 0 0 0 0 0 0 0
0 0 0 0 0 0 0 0 0 0 0 0 0 0 0 0 0 0 0 0 0 0
0 0 0 0 0 0 0 0 0 0 0 0 0 0 0 0 0 0 0 0 0 -0
0 0 0 0 0 0 0 0 0 0 0 0 0 0 0 0 0 0 0 0 0 0
0 0 0 0 0 0 0 0 0 0 0 0 0 0 0 -0 0 0 0 0 0 0
Wind_Speed_500mb
79 74 71 63 57 51 50 54 53 51 46 40 42 45 39 36 34 35 32 34 38 34
74 80 71 65 58 49 53 49 47 43 42 39 46 43 37 34 35 32 31 33 30 33
69 68 65 64 58 55 53 49 46 42 38 40 47 41 37 31 28 29 30 31 33 33
59 51 54 60 56 52 45 48 44 42 46 46 42 37 31 26 27 29 31 32 29 27
49 49 57 57 50 46 47 43 43 49 47 42 36 34 28 25 26 27 29 28 29 26
41 46 49 47 46 49 48 48 47 48 46 40 29 26 24 19 18 16 20 26 27 27
44 47 49 51 51 53 52 51 49 45 36 27 22 23 19 21 21 23 24 24 26 30
52 50 57 55 56 53 55 49 43 40 38 32 30 25 29 27 25 27 29 29 29 32
58 57 58 55 61 59 57 51 53 41 38 33 26 27 25 24 29 25 23 24 25 25
68 54 50 57 61 61 57 48 43 39 34 28 26 21 22 21 18 16 18 23 30 28
55 61 63 61 57 54 50 44 43 33 30 25 23 23 18 15 14 10 11 15 25 26
66 68 62 61 57 53 49 41 36 33 29 23 21 20 19 16 13 12 13 15 25 26
58 59 61 58 56 52 46 42 36 29 21 21 20 20 15 12 14 15 20 24 25 22
58 60 56 54 49 46 42 39 34 26 24 23 19 15 12 12 12 13 21 25 27 28
Wind_Direction_500mb
248 250 250 248 254 253 240 235 236 239 243 242 223 218 226 222 220 230 230 226 233 238
243 245 248 246 244 242 232 237 235 242 237 229 199 218 215 215 218 225 225 229 238 240
250 248 244 237 235 232 229 236 231 228 216 200 200 210 201 210 216 221 232 237 238 239
239 233 229 229 228 225 227 226 225 203 190 194 195 193 195 206 219 232 233 236 227 232
224 228 222 219 226 224 212 210 189 184 186 187 194 196 209 217 238 233 231 225 227 233
220 217 214 205 197 196 191 178 180 182 185 184 194 211 219 218 218 239 241 236 241 239
203 204 193 189 187 181 178 174 171 175 175 185 191 194 198 211 231 245 248 248 241 237
188 188 188 183 181 180 169 161 166 171 178 193 203 199 217 225 234 251 253 255 244 236
182 184 185 183 178 167 163 172 170 184 188 185 195 220 219 234 251 253 245 232 218 226
166 163 168 163 158 163 168 174 173 174 180 195 206 222 242 241 236 235 239 214 217 217
163 160 158 160 165 166 166 170 172 183 192 201 218 232 227 211 203 211 212 214 203 201
159 159 162 161 163 165 166 175 180 183 196 212 214 202 196 195 200 210 193 176 168 170
165 162 161 163 167 167 175 177 178 183 193 188 191 189 196 196 204 201 185 173 171 170
159 161 167 166 172 173 177 176 179 180 173 177 180 191 182 166 168 194 185 181 169 166
Wind_Speed_850mb
79 74 71 63 57 51 50 54 53 51 46 40 42 45 39 36 34 35 32 34 38 34
74 80 71 65 58 49 53 49 47 43 42 39 46 43 37 34 35 32 31 33 30 33
69 68 65 64 58 55 53 49 46 42 38 40 47 41 37 31 28 29 30 31 33 33
59 51 54 60 56 52 45 48 44 42 46 46 42 37 31 26 27 29 31 32 29 27
49 49 57 57 50 46 47 43 43 49 47 42 36 34 28 25 26 27 29 28 29 26
41 46 49 47 46 49 48 48 47 48 46 40 29 26 24 19 18 16 20 26 27 27
44 47 49 51 51 53 52 51 49 45 36 27 22 23 19 21 21 23 24 24 26 30
52 50 57 55 56 53 55 49 43 40 38 32 30 25 29 27 25 27 29 29 29 32
58 57 58 55 61 59 57 51 53 41 38 33 26 27 25 24 29 25 23 24 25 25
68 54 50 57 61 61 57 48 43 39 34 28 26 21 22 21 18 16 18 23 30 28
55 61 63 61 57 54 50 44 43 33 30 25 23 23 18 15 14 10 11 15 25 26
66 68 62 61 57 53 49 41 36 33 29 23 21 20 19 16 13 12 13 15 25 26
58 59 61 58 56 52 46 42 36 29 21 21 20 20 15 12 14 15 20 24 25 22
58 60 56 54 49 46 42 39 34 26 24 23 19 15 12 12 12 13 21 25 27 28
Wind_Direction_850mb
248 250 250 248 254 253 240 235 236 239 243 242 223 218 226 222 220 230 230 226 233 238
243 245 248 246 244 242 232 237 235 242 237 229 199 218 215 215 218 225 225 229 238 240
250 248 244 237 235 232 229 236 231 228 216 200 200 210 201 210 216 221 232 237 238 239
239 233 229 229 228 225 227 226 225 203 190 194 195 193 195 206 219 232 233 236 227 232
224 228 222 219 226 224 212 210 189 184 186 187 194 196 209 217 238 233 231 225 227 233
220 217 214 205 197 196 191 178 180 182 185 184 194 211 219 218 218 239 241 236 241 239
203 204 193 189 187 181 178 174 171 175 175 185 191 194 198 211 231 245 248 248 241 237
188 188 188 183 181 180 169 161 166 171 178 193 203 199 217 225 234 251 253 255 244 236
182 184 185 183 178 167 163 172 170 184 188 185 195 220 219 234 251 253 245 232 218 226
166 163 168 163 158 163 168 174 173 174 180 195 206 222 242 241 236 235 239 214 217 217
163 160 158 160 165 166 166 170 172 183 192 201 218 232 227 211 203 211 212 214 203 201
159 159 162 161 163 165 166 175 180 183 196 212 214 202 196 195 200 210 193 176 168 170
165 162 161 163 167 167 175 177 178 183 193 188 191 189 196 196 204 201 185 173 171 170
159 161 167 166 172 173 177 176 179 180 173 177 180 191 182 166 168 194 185 181 169 166